Weather reports worldwide

Advertisment
Cap Cepet, France (7661): temperature & dewpoint: 19.03.2019 07:00:00 - 25.03.2019 07:00:00 (CET)Cap Cepet, France (7661): wind speed & gusts: 19.03.2019 07:00:00 - 25.03.2019 07:00:00 (CET)Cap Cepet, France (7661): wind direction: 19.03.2019 07:00:00 - 25.03.2019 07:00:00 (CET)Cap Cepet, France (7661): reduced air pressure: 19.03.2019 07:00:00 - 25.03.2019 07:00:00 (CET)Cap Cepet, France (7661): visibility: 19.03.2019 07:00:00 - 25.03.2019 07:00:00 (CET)Cap Cepet, France (7661): precipitation: 19.03.2019 07:00:00 - 25.03.2019 07:00:00 (CET)
Date & Time tt [°C] td [°C] ff [km/h] ff [kn] fx [km/h] fx [kn] dd ppp [hPa] vv [km] rr [mm]
25.03.2019 07:00:00 11,9 5,1 21 12 30 16 NW 1016,1 - 0,0
25.03.2019 06:00:00 12,7 5,6 20 11 31 17 NW 1016,0 - 0,0
25.03.2019 05:00:00 12,3 6,1 21 12 35 19 NW 1016,3 - 0,0
25.03.2019 04:00:00 12,1 7,2 15 8 22 12 NNW 1016,7 - 0,0
25.03.2019 03:00:00 12,2 7,7 16 9 37 20 NNW 1017,3 - 0,0
25.03.2019 02:00:00 12,4 8,7 26 14 39 21 NW 1018,0 - 0,0
25.03.2019 01:00:00 12,7 6,9 31 17 41 22 WNW 1018,5 - 0,0
25.03.2019 00:00:00 12,4 8,1 23 13 33 18 NW 1019,4 - 0,0
24.03.2019 23:00:00 13,6 3,6 22 12 29 16 NW 1019,8 - 0,0
24.03.2019 22:00:00 12,9 6,2 23 12 28 15 NW 1020,2 20 0,0
24.03.2019 21:00:00 13,1 6,9 18 10 29 16 NW 1020,5 - 0,0
24.03.2019 20:00:00 13,0 6,3 24 13 30 16 W 1020,5 - 0,0
24.03.2019 19:00:00 13,5 7,0 16 9 29 16 W 1020,3 20 0,0
24.03.2019 18:00:00 16,1 9,0 18 10 25 13 WNW 1020,6 - 0,0
24.03.2019 17:00:00 17,0 10,8 15 8 28 15 W 1020,7 - 0,0
24.03.2019 16:00:00 17,8 9,4 13 7 20 11 SW 1021,1 - 0,0
24.03.2019 15:00:00 16,7 12,2 15 8 20 11 SW 1021,8 - 0,0
24.03.2019 14:00:00 16,4 11,1 12 6 19 10 WSW 1022,5 - 0,0
24.03.2019 13:00:00 16,0 12,0 14 8 20 11 SW 1023,2 0,1 0,0
24.03.2019 12:00:00 17,5 10,6 12 6 19 10 SW 1023,4 - 0,0
24.03.2019 11:00:00 19,6 5,3 2 1 10 6 NNW 1023,5 - 0,0
24.03.2019 10:00:00 19,3 1,7 3 1 14 8 E 1023,5 - 0,0
24.03.2019 09:00:00 16,3 0,4 11 6 18 10 E 1023,3 - 0,0
24.03.2019 08:00:00 13,6 -1,2 16 9 26 14 E 1023,4 - 0,0
24.03.2019 07:00:00 11,7 -3,3 19 11 23 13 E 1023,3 22 0,0
24.03.2019 06:00:00 12,2 2,3 10 6 13 7 E 1023,0 - 0,0
24.03.2019 05:00:00 13,6 0,9 2 1 13 7 N 1022,8 - 0,0
24.03.2019 04:00:00 11,8 7,5 8 5 16 9 NW 1022,7 - 0,0
24.03.2019 03:00:00 12,9 6,2 0 0 7 4 N 1022,7 - 0,0
24.03.2019 02:00:00 12,4 7,7 3 1 14 7 WNW 1023,0 - 0,0
24.03.2019 01:00:00 12,7 8,2 3 2 11 6 W 1023,2 - 0,0
24.03.2019 00:00:00 12,4 7,3 7 4 13 7 N 1023,6 - 0,0
23.03.2019 23:00:00 14,0 6,4 11 6 16 9 E 1023,6 - 0,0
23.03.2019 22:00:00 14,1 6,4 12 6 18 10 E 1023,7 - 0,0
23.03.2019 21:00:00 15,4 6,9 10 6 14 7 E 1023,4 - 0,0
23.03.2019 20:00:00 13,9 8,7 6 3 12 7 NNE 1023,4 - 0,0
23.03.2019 19:00:00 14,5 5,0 8 4 10 5 NW 1023,0 - 0,0
23.03.2019 18:00:00 15,4 7,4 6 4 9 5 WNW 1022,7 - 0,0
23.03.2019 17:00:00 17,8 9,2 4 2 12 6 WSW 1022,6 - 0,0
23.03.2019 16:00:00 17,0 8,9 10 5 19 10 SW 1023,2 - 0,0
23.03.2019 15:00:00 17,4 8,8 9 5 21 11 WSW 1023,1 - 0,0
23.03.2019 14:00:00 18,0 8,5 11 6 18 10 SW 1023,7 - 0,0
23.03.2019 13:00:00 17,4 8,5 10 5 16 9 SW 1024,3 - 0,0
23.03.2019 12:00:00 18,4 8,6 5 3 11 6 SW 1024,3 - 0,0
23.03.2019 11:00:00 19,8 4,3 2 1 8 5 E 1024,4 - 0,0
23.03.2019 10:00:00 18,8 0,8 3 2 8 4 E 1024,5 25 0,0
23.03.2019 09:00:00 16,7 4,0 4 2 9 5 E 1024,6 - 0,0
23.03.2019 08:00:00 13,3 2,8 0 0 7 4 N 1024,8 - 0,0
23.03.2019 07:00:00 11,7 3,5 6 3 9 5 W 1024,7 20 0,0
23.03.2019 06:00:00 11,0 5,5 8 5 16 9 NNW 1024,8 - 0,0
23.03.2019 05:00:00 10,5 4,0 16 8 28 15 NNW 1024,8 - 0,0
23.03.2019 04:00:00 10,3 3,3 21 12 26 14 NW 1025,2 - 0,0
23.03.2019 03:00:00 10,5 3,1 18 10 24 13 NNW 1025,5 - 0,0
23.03.2019 02:00:00 10,8 2,9 16 9 19 11 NNW 1025,9 - 0,0
23.03.2019 01:00:00 11,3 2,8 17 9 22 12 NNW 1026,3 - 0,0
23.03.2019 00:00:00 11,5 4,5 16 9 18 10 NW 1026,9 - 0,0
22.03.2019 23:00:00 11,5 2,8 11 6 17 9 NW 1027,1 - 0,0
22.03.2019 22:00:00 12,1 3,3 14 8 18 10 NNW 1027,0 - 0,0
22.03.2019 21:00:00 13,2 3,0 9 5 13 7 NW 1027,0 - 0,0
22.03.2019 20:00:00 13,6 2,2 12 6 13 7 NW 1026,8 - 0,0
22.03.2019 19:00:00 14,2 1,8 5 3 6 4 WSW 1026,7 25 0,0
22.03.2019 18:00:00 16,0 6,7 0 0 9 5 N 1026,5 - 0,0
22.03.2019 17:00:00 17,8 2,5 6 3 12 6 SW 1026,6 - 0,0
22.03.2019 16:00:00 17,9 -0,9 8 5 19 11 E 1027,0 - 0,0
22.03.2019 15:00:00 17,2 7,5 11 6 23 12 S 1027,6 - 0,0
22.03.2019 14:00:00 18,3 6,2 10 6 23 13 SW 1027,8 - 0,0
22.03.2019 13:00:00 19,0 4,0 15 8 29 15 SW 1028,3 - 0,0
22.03.2019 12:00:00 18,1 2,8 17 9 31 17 SW 1028,4 - 0,0
22.03.2019 11:00:00 16,6 7,2 16 9 22 12 SW 1028,4 - 0,0
22.03.2019 10:00:00 17,5 2,2 9 5 15 8 WNW 1028,0 - 0,0
22.03.2019 09:00:00 14,4 -2,1 10 5 12 7 NW 1027,8 - 0,0
22.03.2019 08:00:00 12,8 -3,1 8 4 11 6 NW 1027,7 - 0,0
22.03.2019 07:00:00 12,8 -3,1 9 5 17 9 E 1027,2 - 0,0
22.03.2019 06:00:00 12,3 -3,1 11 6 17 9 E 1027,2 - 0,0
22.03.2019 05:00:00 11,7 -2,5 7 4 15 8 NNE 1027,1 - 0,0
22.03.2019 04:00:00 11,6 -3,0 11 6 13 7 NNW 1027,1 20 0,0
22.03.2019 03:00:00 12,4 -1,9 6 4 17 9 E 1027,3 - 0,0
22.03.2019 02:00:00 11,5 -0,7 15 8 24 13 E 1027,5 - 0,0
22.03.2019 01:00:00 12,5 -1,5 16 9 24 13 E 1027,8 - 0,0
22.03.2019 00:00:00 12,5 -0,4 8 5 11 6 ENE 1028,0 - 0,0
21.03.2019 23:00:00 11,0 1,5 5 3 7 4 NNW 1028,1 - 0,0
21.03.2019 22:00:00 11,9 -0,3 6 3 11 6 N 1028,0 - 0,0
21.03.2019 21:00:00 11,7 1,3 9 5 18 10 N 1027,9 - 0,0
21.03.2019 20:00:00 11,9 1,8 11 6 20 11 NNW 1027,7 - 0,0
21.03.2019 19:00:00 12,6 1,9 13 7 16 9 NW 1027,5 - 0,0
21.03.2019 18:00:00 15,3 -1,3 6 3 15 8 ESE 1027,1 - 0,0
21.03.2019 17:00:00 15,8 -1,3 9 5 18 10 ESE 1027,1 - 0,0
21.03.2019 16:00:00 16,7 -0,1 3 2 18 10 SW 1027,1 - 0,0
21.03.2019 15:00:00 16,7 0,3 10 6 20 11 WSW 1027,5 - 0,0
21.03.2019 14:00:00 16,8 0,0 10 5 27 14 WSW 1027,8 - 0,0
21.03.2019 13:00:00 16,6 3,6 17 9 25 13 WSW 1028,3 - 0,0
21.03.2019 12:00:00 15,5 3,6 13 7 17 9 SW 1028,5 - 0,0
21.03.2019 11:00:00 14,4 1,6 3 2 10 6 NW 1028,9 - 0,0
21.03.2019 10:00:00 12,7 1,4 7 4 18 10 E 1029,1 - 0,0
21.03.2019 09:00:00 11,3 1,5 15 8 23 12 E 1028,8 - 0,0
21.03.2019 08:00:00 7,9 2,6 5 3 18 10 ENE 1028,4 - 0,0
21.03.2019 07:00:00 7,8 1,6 15 8 18 10 N 1027,9 - 0,0
21.03.2019 06:00:00 7,4 0,6 15 8 20 11 N 1027,7 - 0,0
21.03.2019 05:00:00 8,5 0,5 13 7 22 12 E 1027,9 - 0,0
21.03.2019 04:00:00 6,4 1,5 19 11 29 16 E 1028,1 15 0,0
21.03.2019 03:00:00 7,4 1,7 14 8 26 14 E 1028,5 - 0,0
21.03.2019 02:00:00 7,8 1,4 10 5 23 12 E 1028,6 - 0,0
21.03.2019 01:00:00 10,4 0,1 7 4 11 6 ENE 1028,7 - 0,0
21.03.2019 00:00:00 10,0 2,1 10 5 13 7 ENE 1028,9 - 0,0
20.03.2019 23:00:00 9,2 4,0 11 6 15 8 E 1029,2 - 0,0
20.03.2019 22:00:00 9,2 3,4 7 4 12 6 N 1029,3 - 0,0
20.03.2019 21:00:00 9,7 3,9 8 4 12 7 NNW 1029,0 - 0,0
20.03.2019 20:00:00 10,5 4,0 5 3 8 5 NNW 1028,9 - 0,0
20.03.2019 19:00:00 11,6 2,6 8 4 13 7 SSE 1028,6 - 0,0
20.03.2019 18:00:00 13,3 3,4 4 2 12 7 SW 1028,1 - 0,0
20.03.2019 17:00:00 13,2 3,0 9 5 15 8 WSW 1027,6 - 0,0
20.03.2019 16:00:00 13,3 3,6 12 6 23 13 WSW 1027,5 30 0,0
20.03.2019 15:00:00 15,5 3,9 15 8 24 13 SW 1027,4 - 0,0
20.03.2019 14:00:00 15,4 3,8 16 9 27 15 SW 1027,4 - 0,0
20.03.2019 13:00:00 15,1 3,6 15 8 23 13 SW 1027,8 30 0,0
20.03.2019 12:00:00 15,5 0,1 10 5 18 10 SW 1028,0 - 0,0
20.03.2019 11:00:00 14,4 -0,9 4 2 10 5 E 1028,0 - 0,0
20.03.2019 10:00:00 13,6 3,1 2 1 5 3 N 1027,7 - 0,0
20.03.2019 09:00:00 12,7 4,4 0 0 10 5 N 1027,3 - 0,0
20.03.2019 08:00:00 9,9 0,5 9 5 11 6 E 1026,8 - 0,0
20.03.2019 07:00:00 7,8 1,8 4 2 14 8 ENE 1026,3 - 0,0
20.03.2019 06:00:00 6,7 2,8 9 5 16 8 N 1025,9 - 0,0
20.03.2019 05:00:00 7,0 1,1 11 6 17 9 E 1025,6 - 0,0
20.03.2019 04:00:00 6,8 2,7 12 6 24 13 E 1025,6 15 0,0
20.03.2019 03:00:00 7,1 2,4 18 10 25 13 E 1025,7 - 0,0
20.03.2019 02:00:00 7,7 3,4 6 4 15 8 ENE 1025,8 - 0,0
20.03.2019 01:00:00 8,7 3,7 8 4 10 5 N 1025,5 - 0,0
20.03.2019 00:00:00 9,3 3,3 6 4 18 10 E 1025,7 - 0,0
19.03.2019 23:00:00 9,8 2,6 8 4 12 6 E 1025,5 - 0,0
19.03.2019 22:00:00 10,2 3,9 5 3 15 8 E 1025,0 - 0,0
19.03.2019 21:00:00 10,0 2,3 13 7 17 9 SSW 1024,6 - 0,0
19.03.2019 20:00:00 10,1 2,4 11 6 16 8 SW 1024,3 - 0,0
19.03.2019 19:00:00 10,2 2,8 10 5 15 8 SSW 1023,9 25 0,0
19.03.2019 18:00:00 11,7 2,7 8 5 18 10 SW 1023,1 - 0,0
19.03.2019 17:00:00 12,1 2,8 12 6 21 11 SW 1022,5 - 0,0
19.03.2019 16:00:00 12,3 3,0 15 8 25 14 SSW 1022,1 - 0,0
19.03.2019 15:00:00 12,4 2,3 15 8 37 20 SE 1021,7 - 0,0
19.03.2019 14:00:00 13,4 2,9 18 10 41 22 ESE 1021,5 - 0,0
19.03.2019 13:00:00 15,6 2,0 24 13 45 25 ESE 1021,4 30 0,0
19.03.2019 12:00:00 14,8 1,3 26 14 42 23 ESE 1021,2 - 0,0
19.03.2019 11:00:00 15,0 1,8 23 12 51 28 E 1020,9 - 0,0
19.03.2019 10:00:00 13,8 1,4 30 16 51 28 E 1020,1 30 0,0
19.03.2019 09:00:00 10,5 1,3 18 10 26 14 E 1019,9 - 0,0
19.03.2019 08:00:00 8,1 1,0 15 8 29 15 E 1019,8 - 0,0
19.03.2019 07:00:00 6,2 -0,5 18 10 26 14 E 1019,1 20 0,0

tt = temperature
td = dewpoint
ff = wind speed
fx = gusts
dd = wind direction
ppp = reduced air pressure
vv = visibility
rr = precipitation

Next stations